Total_Precipitation_Accumulation
0.09 0.04 0.03 0.00 0.00 0.00 0.00 0.00 0.01 0.00 0.00 0.00 0.00 0.00 0.00 0.00 0.00 0.00 0.00 0.00 0.00 0.00 0.00 0.00 0.00 0.00 0.01 0.11 0.29 0.43 0.41 0.37 0.37 0.41 0.41 0.40 0.41 0.42 0.40 0.38 0.37 0.46 0.62 0.71
0.14 0.11 0.10 0.04 0.01 0.00 0.00 0.00 0.00 0.00 0.00 0.00 0.00 0.00 0.00 0.00 0.00 0.00 0.00 0.00 0.00 0.00 0.00 0.00 0.00 0.00 0.00 0.01 0.14 0.39 0.47 0.55 0.52 0.42 0.39 0.43 0.45 0.40 0.39 0.41 0.35 0.31 0.33 0.36
0.18 0.14 0.15 0.10 0.01 0.00 0.00 0.00 0.00 0.00 0.00 0.00 0.00 0.00 0.00 0.00 0.00 0.00 0.00 0.00 0.00 0.00 0.00 0.00 0.00 0.00 0.00 0.00 0.01 0.12 0.39 0.57 0.55 0.65 0.79 0.55 0.48 0.54 0.61 0.56 0.54 0.49 0.41 0.40
0.14 0.11 0.11 0.02 0.00 0.00 0.00 0.00 0.00 0.00 0.00 0.00 0.00 0.00 0.00 0.00 0.00 0.00 0.00 0.00 0.00 0.00 0.00 0.00 0.00 0.00 0.00 0.00 0.01 0.01 0.05 0.21 0.64 0.83 0.92 1.05 0.85 0.68 0.70 0.84 0.90 0.81 0.74 0.69
0.08 0.04 0.01 0.00 0.00 0.00 0.00 0.00 0.00 0.00 0.00 0.00 0.00 0.00 0.00 0.00 0.00 0.00 0.00 0.01 0.01 0.01 0.01 0.00 0.00 0.00 0.01 0.01 0.02 0.04 0.06 0.16 0.31 0.41 0.82 1.09 1.22 1.04 0.78 0.78 0.78 0.81 0.81 0.74
0.03 0.02 0.01 0.00 0.00 0.00 0.00 0.00 0.00 0.00 0.00 0.00 0.00 0.00 0.00 0.00 0.00 0.01 0.01 0.01 0.00 0.01 0.00 0.00 0.00 0.01 0.01 0.00 0.02 0.04 0.07 0.10 0.19 0.23 0.25 0.44 0.74 0.85 0.72 0.61 0.65 0.59 0.62 0.63
0.03 0.02 0.00 0.00 0.00 0.00 0.00 0.00 0.00 0.00 0.00 0.00 0.00 0.00 0.00 0.01 0.07 0.02 0.01 0.00 0.01 0.01 0.00 0.00 0.00 0.02 0.03 0.03 0.03 0.03 0.06 0.07 0.12 0.17 0.21 0.29 0.46 0.57 0.48 0.41 0.40 0.45 0.43 0.47
0.04 0.04 0.01 0.00 0.00 0.00 0.00 0.00 0.00 0.00 0.00 0.00 0.00 0.00 0.00 0.03 0.03 0.05 0.03 0.00 0.01 0.00 0.00 0.02 0.01 0.03 0.03 0.03 0.04 0.05 0.07 0.10 0.11 0.15 0.30 0.45 0.45 0.33 0.33 0.36 0.33 0.29 0.30 0.35
0.00 0.00 0.00 0.00 0.00 0.00 0.00 0.00 0.00 0.00 0.00 0.00 0.00 0.00 0.00 0.00 0.01 0.01 0.01 0.01 0.01 0.00 0.04 0.05 0.03 0.08 0.11 0.04 0.05 0.07 0.08 0.14 0.17 0.26 0.34 0.42 0.41 0.27 0.22 0.23 0.21 0.20 0.16 0.16
0.00 0.00 0.00 0.00 0.00 0.00 0.00 0.00 0.00 0.00 0.00 0.00 0.00 0.00 0.00 0.00 0.00 0.00 0.01 0.02 0.02 0.02 0.08 0.09 0.17 0.24 0.30 0.43 0.31 0.15 0.15 0.15 0.22 0.34 0.37 0.33 0.28 0.30 0.22 0.18 0.13 0.11 0.08 0.09
0.00 0.00 0.00 0.00 0.00 0.00 0.00 0.00 0.00 0.00 0.00 0.00 0.00 0.00 0.00 0.00 0.00 0.01 0.01 0.01 0.01 0.02 0.03 0.22 0.27 0.28 0.44 0.61 0.68 0.57 0.39 0.42 0.39 0.32 0.31 0.37 0.38 0.31 0.23 0.23 0.17 0.11 0.07 0.05
0.00 0.00 0.00 0.00 0.00 0.00 0.00 0.00 0.00 0.00 0.00 0.00 0.00 0.00 0.00 0.00 0.00 0.01 0.01 0.00 0.00 0.00 0.01 0.09 0.04 0.05 0.20 0.34 0.46 0.59 0.73 0.65 0.71 0.71 0.46 0.32 0.29 0.31 0.25 0.27 0.30 0.23 0.15 0.13
0.00 0.00 0.00 0.00 0.00 0.00 0.00 0.00 0.00 0.00 0.00 0.00 0.00 0.01 0.01 0.01 0.00 0.01 0.00 0.00 0.00 0.00 0.00 0.01 0.02 0.02 0.03 0.08 0.12 0.15 0.22 0.35 0.61 0.84 0.87 0.61 0.41 0.29 0.21 0.21 0.21 0.21 0.21 0.20
0.00 0.00 0.00 0.00 0.00 0.00 0.00 0.00 0.00 0.00 0.00 0.00 0.02 0.02 0.01 0.01 0.00 0.00 0.00 0.01 0.02 0.00 0.00 0.01 0.02 0.04 0.04 0.02 0.01 0.02 0.04 0.09 0.09 0.18 0.31 0.44 0.42 0.35 0.19 0.14 0.13 0.18 0.21 0.14
0.00 0.00 0.01 0.01 0.01 0.00 0.00 0.01 0.01 0.01 0.02 0.07 0.22 0.17 0.09 0.04 0.02 0.03 0.05 0.05 0.02 0.00 0.00 0.00 0.02 0.03 0.02 0.01 0.01 0.01 0.01 0.03 0.04 0.05 0.06 0.09 0.09 0.17 0.25 0.21 0.18 0.21 0.20 0.21
0.00 0.00 0.00 0.01 0.02 0.02 0.02 0.03 0.03 0.03 0.08 0.03 0.02 0.04 0.06 0.08 0.08 0.03 0.01 0.00 0.00 0.00 0.00 0.00 0.01 0.01 0.01 0.01 0.01 0.01 0.01 0.01 0.02 0.03 0.05 0.05 0.05 0.06 0.09 0.11 0.12 0.13 0.15 0.17
0.01 0.01 0.01 0.01 0.02 0.02 0.02 0.00 0.01 0.05 0.11 0.07 0.01 0.00 0.00 0.01 0.02 0.04 0.00 0.00 0.00 0.00 0.00 0.00 0.00 0.00 0.00 0.01 0.01 0.01 0.01 0.01 0.02 0.02 0.03 0.02 0.02 0.02 0.04 0.07 0.09 0.13 0.16 0.17
0.01 0.01 0.01 0.01 0.01 0.01 0.01 0.01 0.07 0.13 0.11 0.06 0.01 0.00 0.00 0.01 0.02 0.02 0.02 0.01 0.01 0.00 0.00 0.00 0.01 0.02 0.01 0.01 0.01 0.01 0.01 0.02 0.02 0.02 0.03 0.03 0.03 0.04 0.05 0.06 0.06 0.07 0.10 0.13
0.02 0.02 0.01 0.02 0.03 0.09 0.08 0.04 0.02 0.02 0.04 0.05 0.02 0.01 0.01 0.01 0.01 0.02 0.02 0.01 0.01 0.01 0.00 0.00 0.01 0.01 0.01 0.02 0.01 0.01 0.01 0.01 0.01 0.01 0.02 0.03 0.04 0.04 0.04 0.05 0.06 0.07 0.07 0.09
0.07 0.11 0.12 0.08 0.05 0.03 0.02 0.03 0.01 0.01 0.01 0.01 0.01 0.00 0.00 0.00 0.01 0.01 0.01 0.01 0.00 0.00 0.00 0.00 0.00 0.00 0.01 0.01 0.02 0.01 0.01 0.01 0.01 0.01 0.01 0.01 0.03 0.04 0.03 0.03 0.03 0.04 0.05 0.05
0.01 0.01 0.00 0.00 0.00 0.00 0.00 0.00 0.00 0.00 0.00 0.00 0.00 0.00 0.00 0.01 0.00 0.00 0.00 0.00 0.00 0.01 0.00 0.00 0.00 0.00 0.00 0.01 0.02 0.05 0.04 0.03 0.03 0.03 0.03 0.02 0.01 0.01 0.01 0.02 0.02 0.02 0.03 0.03
0.00 0.00 0.00 0.00 0.00 0.00 0.00 0.00 0.00 0.00 0.00 0.00 0.00 0.00 0.01 0.01 0.00 0.00 0.00 0.00 0.01 0.03 0.01 0.01 0.00 0.00 0.01 0.01 0.02 0.08 0.09 0.08 0.08 0.07 0.07 0.07 0.05 0.04 0.03 0.02 0.03 0.03 0.03 0.03
0.00 0.00 0.00 0.00 0.00 0.00 0.00 0.00 0.00 0.00 0.00 0.00 0.00 0.00 0.01 0.01 0.00 0.01 0.01 0.01 0.02 0.02 0.01 0.02 0.02 0.02 0.02 0.03 0.03 0.06 0.12 0.16 0.17 0.15 0.13 0.11 0.08 0.05 0.04 0.03 0.03 0.03 0.04 0.03
0.00 0.00 0.00 0.00 0.00 0.00 0.00 0.00 0.00 0.00 0.00 0.00 0.00 0.00 0.01 0.01 0.01 0.01 0.01 0.01 0.02 0.03 0.03 0.04 0.05 0.06 0.06 0.06 0.07 0.07 0.08 0.10 0.12 0.13 0.13 0.10 0.06 0.03 0.03 0.03 0.03 0.04 0.03 0.03
0.00 0.00 0.00 0.00 0.00 0.00 0.00 0.00 0.00 0.00 0.00 0.00 0.00 0.00 0.00 0.00 0.01 0.01 0.02 0.02 0.03 0.02 0.04 0.07 0.07 0.08 0.09 0.10 0.09 0.08 0.08 0.06 0.04 0.03 0.02 0.02 0.02 0.02 0.03 0.03 0.03 0.03 0.03 0.02
0.00 0.00 0.00 0.00 0.00 0.00 0.00 0.00 0.00 0.00 0.00 0.01 0.01 0.01 0.01 0.01 0.01 0.02 0.02 0.03 0.02 0.02 0.03 0.06 0.06 0.05 0.05 0.04 0.03 0.02 0.01 0.01 0.01 0.01 0.01 0.01 0.02 0.02 0.03 0.03 0.03 0.03 0.02 0.02
0.00 0.00 0.00 0.00 0.00 0.00 0.00 0.00 0.00 0.00 0.00 0.02 0.02 0.01 0.01 0.02 0.02 0.02 0.03 0.04 0.04 0.03 0.03 0.04 0.03 0.01 0.01 0.01 0.01 0.01 0.01 0.01 0.01 0.01 0.01 0.02 0.01 0.02 0.02 0.02 0.02 0.02 0.02 0.01